Location: Palmerston North
(40.3500°S, 175.6170°E)
Time: 02:38:45
(UTC+13:00)

Cosmos 1869 Rocket - Pass Details

Date: 24 January 2019
Orbit: 606 x 632 km, 82.5° (Epoch: 19 February)

Event Time Altitude Azimuth Distance (km) Brightness Sun altitude
Rises 22:28:34 0° 183° (S) 2,920 7.8 -17.1°
Reaches altitude 10° 22:30:52 10° 178° (S) 2,003 6.8 -17.4°
Maximum altitude 22:35:13 53° 100° (E) 759 3.8 -17.9°
Enters shadow 22:36:30 39° 48° (NE) 934 3.9 -18.1°
